Location: *
(41.0833°N, 73.4167°W)
Time: 03:23:13
(UTC+00:00)

ATLAS 3B R/B - Pass Details

Date: 22 October 2019
Orbit: 1029 x 1166 km, 63.8° (Epoch: 10 November)

Event Time Altitude Azimuth Distance (km) Brightness Sun altitude
Exits shadow 07:25:20 29° 45° (NE) 1,824 4.2 -42.6°
Drops below altitude 10° 07:30:49 10° 99° (E) 2,890 5.4 -41.7°
Sets 07:33:53 0° 110° (ESE) 3,864 6.1 -41.2°
